Miscellaneous Local Product
Issued by NWS Hastings, NE

Home | Current Version | Previous Version | Text Only | Print | Product List | Glossary On
Versions: 1 2 3 4 5 6 7 8 9 10 11 12 13 14 15 16 17 18 19 20 21 22 23 24 25 26 27 28 29 30 31 32 33 34 35 36 37 38 39 40 41 42 43 44 45 46 47 48 49 50
000
AXUS43 KGID 182102
MISGRI

GID CWA HOURLY WEATHER ROUNDUP
NATIONAL WEATHER SERVICE HASTINGS NE
400 PM CDT FRI APR 18 2014

NOTE: "FAIR" INDICATES FEW OR NO CLOUDS BELOW 12,000 FEET WITH NO
SIGNIFICANT WEATHER AND/OR OBSTRUCTIONS TO VISIBILITY.

...SOUTH CENTRAL NEBRASKA...

CITY           SKY/WX    TMP DP  RH WIND       PRES   REMARKS
GRAND ISLAND   MOSUNNY   69  42  37 S29G36    30.04F
HASTINGS       MOSUNNY   70  40  33 S22G31    30.03F
KEARNEY        MOSUNNY   70  43  37 S29G35    30.01F
ORD            MOSUNNY   69  40  34 S25G36    29.97F
YORK           MOSUNNY   68  41  37 S21G31    30.07F
AURORA         SUNNY     69  42  36 S23G31    30.06F
LEXINGTON      CLOUDY    69  43  38 S28G33    29.98F
HOLDREGE       MOSUNNY   69  39  33 S29G39    30.00F
HEBRON         MOSUNNY   70  40  33 S16G31    30.09F

...NEBRASKA PANHANDLE...

CITY           SKY/WX    TMP DP  RH WIND       PRES   REMARKS
CHADRON        CLOUDY    79  40  24 S23G30    29.72F
ALLIANCE       CLOUDY    75  32  20 S20       29.83F
SCOTTSBLUFF    PTSUNNY   83  35  18 S23G32    29.79F
SIDNEY         MOSUNNY   80  30  16 S18G28    29.88F

...WESTERN AND NORTH CENTRAL NEBRASKA...

CITY           SKY/WX    TMP DP  RH WIND       PRES   REMARKS
VALENTINE      CLOUDY    73  34  23 S31G41    29.81F
AINSWORTH      PTSUNNY   71  39  31 S31G38    29.87S
ONEILL         SUNNY     70  34  26 S29G38    29.94F
BROKEN BOW     CLOUDY    68  42  38 S24G38    29.96F
IMPERIAL       MOSUNNY   76  37  24 S24G30    29.91F
NORTH PLATTE   CLOUDY    71  41  33 S23G32    29.92F
MCCOOK         MOSUNNY   72  42  34 S24G40    29.95F

...EASTERN NEBRASKA...

CITY           SKY/WX    TMP DP  RH WIND       PRES   REMARKS
NORFOLK        SUNNY     69  39  33 S24G38    30.03F
SO SIOUX CITY  SUNNY     68  36  30 S24G35    30.10F
TEKAMAH        SUNNY     70  35  27 S24G35    30.12F
COLUMBUS       SUNNY     68  43  40 S24G32    30.07F
ALBION         SUNNY     68  39  34 S28G37    30.02F
OMAHA EPPLEY   MOSUNNY   68  36  30 S17       30.13F
OFFUTT AFB     SUNNY     68  38  33 S20G32    30.14F
MILLARD        SUNNY     67  38  34 SE17G23   30.14F
LINCOLN        SUNNY     72  39  30 S24G32    30.10F
NEBRASKA CITY  SUNNY     67  38  34 SE16G22   30.17F
BEATRICE       SUNNY     69  39  32 S16G29    30.12F
FALLS CITY     NOT AVBL

...NORTHERN KANSAS...

CITY           SKY/WX    TMP DP  RH WIND       PRES   REMARKS
GOODLAND       MOSUNNY   74  37  26 S24G33    29.95F
HILL CITY      MOSUNNY   73  41  31 S20G35    30.02F
PHILLIPSBURG   SUNNY     73  39  29 S23G32    30.03F
SMITH CENTER   SUNNY     72  41  33 S23G36    30.06F
BELOIT         SUNNY     72  39  30 S18G29    30.07F
HAYS           MOSUNNY   72  45  37 S28G37    30.06F
RUSSELL        MOSUNNY   71  42  35 S29G36    30.06F
CONCORDIA      MOSUNNY   72  42  34 S24G32    30.10F
SALINA         SUNNY     73  42  32 S25       30.12F
TOPEKA         SUNNY     69  42  37 SE14G22   30.18F



USA.gov is the U.S. government's official web portal to all federal, state and local government web resources and services.